Location: *
(37.5724°S, 58.0067°E)
Time: 15:32:12
(UTC+00:00)

Lacrosse 5 - Pass Details

Date: 24 January 2021
Orbit: 715 x 724 km, 57.0° (Epoch: 03 March)

Event Time Altitude Azimuth Distance (km) Brightness Sun altitude
Exits shadow 19:43:30 23° 246° (WSW) 1,510 3.8 -32.8°
Maximum altitude 19:45:07 28° 216° (SW) 1,366 3.7 -32.8°
Drops below altitude 10° 19:49:32 10° 157° (SSE) 2,243 5.0 -33.0°
Sets 19:52:16 0° 145° (SE) 3,169 5.8 -33.0°
